DW2770 Weather Reports


Display with metric or nautical units.
time (UTC)temp
F
wind
direction
speed
MPH
gust
MPH
rain 1hr
in
rain 24hr
in
rain mn
in
humidity
%
barometer
mb
20260905101513 84 115 2.0 9.0 0.00 0.00 0.00 69 1019.6
20260905100010 84 121 4.0 9.0 0.00 0.00 0.00 69 1019.6
20260905094518 83 96 3.0 8.0 0.00 0.00 0.00 69 1019.7
20260905093026 83 55 4.0 8.0 0.00 0.00 0.00 70 1019.8
20260905091527 83 101 5.0 8.0 0.00 0.00 0.00 69 1019.9
20260905090011 83 96 1.0 6.0 0.00 0.00 0.00 69 1019.8
20260905084517 84 73 2.0 4.0 0.00 0.00 0.00 67 1019.8
20260905083023 84 113 1.0 4.0 0.00 0.00 0.00 66 1019.7
20260905081529 83 119 1.0 7.0 0.00 0.00 0.00 68 1019.7
20260905080007 83 90 2.0 3.0 0.00 0.00 0.00 66 1019.6
20260905074516 82 52 0.0 3.0 0.00 0.00 0.00 68 1019.5
20260905073002 82 240 3.0 6.0 0.00 0.00 0.00 72 1019.5
20260905071505 81 313 2.0 7.0 0.00 0.00 0.00 71 1019.5
20260905070004 81 324 1.0 4.0 0.00 0.00 0.00 70 1019.5
20260905064513 82 309 1.0 4.0 0.00 0.00 0.00 68 1019.4
20260905063014 83 19 0.0 3.0 0.00 0.00 0.00 66 1019.3
20260905061504 83 82 1.0 2.0 0.00 0.00 0.00 66 1019.1
20260905060009 81 193 0.0 1.0 0.00 0.00 0.00 67 1019.0
20260905054509 80 193 1.0 2.0 0.00 0.00 0.00 67 1018.8
20260905053015 78 209 1.0 4.0 0.00 0.00 0.00 68 1018.8
20260905051518 78 185 2.0 4.0 0.00 0.00 0.00 69 1018.8
20260905050004 77 193 2.0 5.0 0.00 0.00 0.00 69 1018.6
20260905044509 77 198 0.0 5.0 0.00 0.00 0.00 68 1018.5
20260905043014 77 171 2.0 4.0 0.00 0.00 0.00 68 1018.4
20260905041520 77 360 0.0 3.0 0.00 0.00 0.00 66 1018.3
20260905040028 77 360 1.0 3.0 0.00 0.00 0.00 62 1018.2
20260905034504 77 360 1.0 4.0 0.00 0.00 0.00 58 1018.2
20260905033024 77 189 1.0 3.0 0.00 0.00 0.00 59 1018.1
20260905031523 78 170 2.0 5.0 0.00 0.00 0.00 60 1018.1
20260905030020 78 189 3.0 7.0 0.00 0.00 0.00 60 1018.0
20260905024529 78 203 2.0 5.0 0.00 0.00 0.00 60 1018.0
20260905023031 78 182 1.0 4.0 0.00 0.00 0.00 60 1018.0
20260905021513 78 171 2.0 5.0 0.00 0.00 0.00 61 1018.1
20260905020024 78 360 1.0 5.0 0.00 0.00 0.00 62 1018.0
20260905014529 78 360 2.0 5.0 0.00 0.00 0.00 63 1018.0
20260905013003 78 196 1.0 4.0 0.00 0.00 0.00 66 1018.1
20260905011503 77 196 2.0 5.0 0.00 0.00 0.00 65 1018.0
20260905010004 78 153 1.0 7.0 0.00 0.00 0.00 64 1018.0
20260905004503 78 188 2.0 7.0 0.00 0.00 0.00 64 1018.0
20260905003004 78 192 2.0 5.0 0.00 0.00 0.00 65 1018.0
20260905001510 78 184 1.0 4.0 0.00 0.00 0.00 67 1018.0
20260905000005 78 173 4.0 8.0 0.00 0.00 0.00 68 1018.0
20260904234507 78 197 3.0 6.0 0.00 0.00 0.00 68 1018.2
20260904233002 78 199 5.0 10.0 0.00 0.00 0.00 67 1018.2
20260904231508 78 155 4.0 8.0 0.00 0.00 0.00 67 1018.3
20260904230004 79 199 4.0 8.0 0.00 0.00 0.00 67 1018.5
20260904224504 79 161 2.0 6.0 0.00 0.00 0.00 65 1018.5
20260904223006 79 182 3.0 8.0 0.00 0.00 0.00 65 1018.5
20260904221506 78 165 3.0 7.0 0.00 0.00 0.00 66 1018.6
20260904220011 78 189 2.0 5.0 0.00 0.00 0.00 72 1018.6
20260904214505 79 190 1.0 6.0 0.00 0.00 0.00 73 1018.6
20260904213011 79 180 0.0 4.0 0.00 0.00 0.00 72 1018.6
20260904211505 79 138 2.0 5.0 0.00 0.00 0.00 72 1018.7
20260904210008 79 157 1.0 6.0 0.00 0.00 0.00 74 1018.8
20260904204506 79 219 3.0 6.0 0.00 0.00 0.00 75 1018.8
20260904203008 79 146 1.0 4.0 0.00 0.00 0.00 75 1018.8
20260904201507 79 342 0.0 0.0 0.00 0.00 0.00 75 1018.9
20260904200010 79 213 0.0 2.0 0.00 0.00 0.00 75 1019.0
20260904194515 79 31 0.0 0.0 0.00 0.00 0.00 75 1018.9
20260904193007 79 78 0.0 2.0 0.00 0.00 0.00 75 1019.0
20260904191514 79 136 0.0 2.0 0.00 0.00 0.00 74 1018.9
20260904190009 80 329 0.0 2.0 0.00 0.00 0.00 74 1018.8
20260904184508 80 194 0.0 3.0 0.00 0.00 0.00 73 1018.6
20260904183010 80 194 0.0 3.0 0.00 0.00 0.00 73 1018.5
20260904181512 81 217 0.0 3.0 0.00 0.00 0.00 73 1018.3
20260904180011 81 78 0.0 2.0 0.00 0.00 0.00 72 1018.0
20260904174519 82 167 0.0 1.0 0.00 0.00 0.00 71 1017.6
20260904173010 82 76 0.0 2.0 0.00 0.00 0.00 71 1017.5
20260904171511 82 92 0.0 3.0 0.00 0.00 0.00 70 1017.2
20260904170010 83 74 1.0 4.0 0.00 0.00 0.00 70 1017.2
20260904164512 84 91 2.0 6.0 0.00 0.00 0.00 69 1017.3
20260904163010 84 97 2.0 6.0 0.00 0.00 0.00 67 1017.2
20260904161509 85 76 1.0 6.0 0.00 0.00 0.00 68 1017.2
20260904160013 85 96 1.0 6.0 0.00 0.00 0.00 67 1017.2
20260904154515 85 94 2.0 9.0 0.00 0.00 0.00 67 1017.1
20260904153020 85 50 2.0 7.0 0.00 0.00 0.00 67 1017.3
20260904151508 85 78 3.0 8.0 0.00 0.00 0.00 67 1017.3
20260904150013 85 92 3.0 7.0 0.00 0.00 0.00 67 1017.4
20260904144503 85 77 4.0 8.0 0.00 0.00 0.00 68 1017.4
20260904143004 85 143 0.0 5.0 0.00 0.00 0.00 67 1017.4
20260904141508 84 89 2.0 7.0 0.00 0.00 0.00 68 1017.5
20260904140011 85 79 3.0 8.0 0.00 0.00 0.00 68 1017.6
20260904134519 85 69 3.0 9.0 0.00 0.00 0.00 69 1017.7
20260904133006 85 69 3.0 9.0 0.00 0.00 0.00 68 1017.7
20260904131504 85 81 3.0 8.0 0.00 0.00 0.00 68 1017.8
20260904130010 85 85 2.0 8.0 0.00 0.00 0.00 67 1017.9
20260904124517 85 76 4.0 8.0 0.00 0.00 0.00 66 1017.9
20260904123020 86 84 4.0 9.0 0.00 0.00 0.00 65 1018.0
20260904121505 86 75 6.0 10.0 0.00 0.00 0.00 65 1018.0
20260904120006 86 321 2.0 7.0 0.00 0.00 0.00 65 1018.2
20260904114511 86 352 3.0 8.0 0.00 0.00 0.00 67 1018.2
20260904113020 86 80 2.0 7.0 0.00 0.00 0.00 67 1018.2
20260904111528 85 61 4.0 8.0 0.00 0.00 0.00 68 1018.2
20260904110014 85 204 1.0 9.0 0.00 0.00 0.00 67 1018.3
20260904104510 86 299 2.0 8.0 0.00 0.00 0.00 67 1018.2
20260904103017 84 324 2.0 6.0 0.00 0.00 0.00 69 1018.1